User: anonymous   Login
Location: Unspecified
(0.0000°N, 0.0000°E)
Time: 16:07:56
(UTC+00:00)
Language:

S-56A Canister/Altair - Orbit

View from above orbital plane
View from above orbital plane
View from above satellite
View from above satellite

Ground track
Ground track

The orbit data is extracted from the following two-line orbital elements,

1    82U 61004B   15242.94007295 -.00000033 +00000-0 -15074-5 0  9991
2    82 038.8610 205.1058 1172028 267.9818 078.6540 12.25708725592736
Epoch (UTC): 30 August 2015 22:33:42
Eccentricity: 0.1172028
inclination: 38.8610°
perigee height: 636 km
apogee height: 2499 km
right ascension of ascending node: 205.1058°
argument of perigee: 267.9818°
revolutions per day: 12.25708725
mean anomaly at epoch: 78.6540°
orbit number at epoch: 59273

The dashed part of the orbit path shows where the satellite is in the earth's shadow,  

DLR